Regional Weather Roundup
Issued by NWS

Home | Current Version | Previous Version | Text Only | Print | Product List | Glossary Off
Versions: 1 2 3 4 5 6 7 8 9 10 11 12 13 14 15 16 17 18 19 20 21 22 23 24 25 26 27 28 29 30 31 32 33 34 35 36 37 38 39 40 41 42 43 44 45 46 47 48 49 50

000
ASUS43 KMPX 020701
RWRMN
WEATHER ROUNDUP FOR MINNESOTA
NATIONAL WEATHER SERVICE TWIN CITIES/CHANHASSEN MN
200 AM CDT SAT AUG 02 2014


NOTE: "FAIR" INDICATES FEW OR NO CLOUDS BELOW 12,000 FEET WITH NO
SIGNIFICANT WEATHER AND/OR OBSTRUCTIONS TO VISIBILITY. N/A MEANS
CURRENT SKY AND/OR WEATHER CONDITIONS ARE NOT AVAILABLE.

MNZ060>063-068>070-020800-
   Twin Cities Metro

CITY           SKY/WX    TMP DP  RH WIND       PRES   REMARKS
TWIN CITIES    CLEAR     69  62  78 CALM      30.08F
ST PAUL        CLEAR     64  63  96 CALM      30.09S FOG
CRYSTAL        CLEAR     66  61  84 CALM      30.07S HAZE
BLAINE         CLEAR     64  63  94 CALM      30.08S
LAKEVILLE      CLEAR     63  61  94 CALM      30.09S
EDEN PRAIRIE   CLEAR     66  63  90 SW5       30.08S
SOUTH ST PAUL  CLEAR     65  62  91 CALM      30.08F FOG
LAKE ELMO      FAIR      61  59  94 CALM      30.09F FOG
$$
MNZ001>005-007-008-013>017-022>024-027-028-020800-
   Northwest Minnesota

CITY           SKY/WX    TMP DP  RH WIND       PRES   REMARKS
BEMIDJI        FOG       54  54  98 CALM      30.11F VSB 1/2
HALLOCK        CLEAR     61  59  94 S6        30.06F
ROSEAU         PTCLDY    61  55  82 S5        30.08F
WARROAD        PTCLDY    63  54  72 SW6       30.09S
THIEF RVR FALL CLEAR     59  55  88 CALM      30.10S
CROOKSTON      CLEAR     61  57  88 SE7       30.10S
FOSSTON        HAZE      54  48  82 CALM      30.12S VSB 1/2
DETROIT LAKES  CLEAR     63  61  94 CALM      30.13R
MOORHEAD       PTCLDY    61  61 100 CALM      30.10S
PARK RAPIDS    CLEAR     56  55  97 NW3       30.11S
$$
MNZ006-009>011-018-025>026-020800-
   North Central Minnesota

CITY           SKY/WX    TMP DP  RH WIND       PRES   REMARKS
BAUDETTE       CLEAR     55  50  83 CALM      30.10S
FLAG ISLAND    CLEAR     66  61  82 SW8       30.05F
INTL FALLS     CLEAR     48  46  93 CALM      30.09F
WASKISH        CLEAR     48  48 100 CALM      30.10S
BIG FORK       CLEAR     50  48  93 CALM      30.11S
LONGVILLE      CLEAR     55  55 100 CALM      30.10S FOG
GRAND RAPIDS   MOCLDY    57  55  94 CALM      30.11R VSB 3/4
CRANE LAKE     CLEAR     46  46 100 CALM      30.11F
ORR            CLEAR     48  46  93 CALM      30.09S
COOK           CLEAR     48  48 100 CALM      30.12R
$$
MNZ012-019>021-037-020800-
   Northeast Minnesota

CITY           SKY/WX    TMP DP  RH WIND       PRES   REMARKS
DULUTH         CLEAR     56  50  80 E6        30.11S
ELY            CLEAR     50  48  93 CALM      30.12S
HIBBING        FOG       52  50  93 NW3       30.12R VSB 1
EVELETH        FOG       52  52 100 CALM      30.12F VSB 3/4
DULUTH HARBOR  CLEAR     57  54  88 NE8       30.12R
TWO HARBORS    CLEAR     52  46  82 CALM      30.10R
SILVER BAY     CLEAR     46  46 100 CALM      30.10S
GRAND MARAIS     N/A     51  49  92 CALM      30.11S
G MARAIS ARPRT CLEAR     46  45  93 W3        30.15R
$$
MNZ029>031-032-039>041-046>048-054>057-064-020800-
   West Central Minnesota

CITY           SKY/WX    TMP DP  RH WIND       PRES   REMARKS
FERGUS FALLS   PTCLDY    63  55  77 NE5       30.10S
WHEATON        PTCLDY    63  61  94 CALM      30.10F
MORRIS         PTCLDY    61  57  88 CALM      30.09F FOG
ALEXANDRIA     CLEAR     62  60  93 CALM      30.12R FOG
ELBOW LAKE     FAIR      65  63  91 CALM      30.10S
WADENA         CLEAR     55  55 100 CALM      30.11R FOG
GLENWOOD       CLEAR     61  59  94 SW3       30.11S
APPLETON       PTCLDY    63  57  82 CALM      30.09S
BENSON         FOG       59  57  94 CALM      30.09F VSB 1/2
ORTONVILLE     PTCLDY    66  61  82 CALM      30.08F
MADISON        PTCLDY    64  63  94 CALM      30.09S
WILLMAR        FAIR      63  59  88 CALM      30.11S
$$
MNZ033>034-036-042>043-049>051-058-059-020800-
   Central Minnesota

CITY           SKY/WX    TMP DP  RH WIND       PRES   REMARKS
ST CLOUD       CLEAR     61  59  93 CALM      30.09R FOG
SAUK CENTRE    FAIR      59  58  96 CALM      30.10S
PAYNESVILLE    CLEAR     56  56 100 S3        30.10S FOG
AITKIN         MOCLDY    55  48  76 CALM      30.09R HAZE
PINE RIVER     CLEAR     55  54  94 CALM      30.14R
BRAINERD       MOCLDY    60  59  96 CALM      30.11R
STAPLES        CLEAR     57  55  94 CALM      30.11R FOG
LONG PRAIRIE   FAIR      57  55  94 CALM      30.11R FOG
LITTLE FALLS   CLEAR     55  55 100 CALM      30.10R FOG
LITCHFIELD     PTCLDY    66  66 100 CALM      30.10S
BUFFALO        CLEAR     64  60  89 CALM      30.09S
MAPLE LAKE     CLEAR     62  61  97 CALM      30.10S
$$
MNZ037-044-045-052-053-020800-
   East Central Minnesota

CITY           SKY/WX    TMP DP  RH WIND       PRES   REMARKS
PRINCETON      FOG       61  59  94 CALM      30.09R VSB 1/4
MORA           CLEAR     59  57  94 CALM      30.11R FOG
CAMBRIDGE      HAZE      64  57  77 CALM      30.07S VSB 1
RUSH CITY      PTCLDY    60  58  94 CALM      30.09R
MOOSE LAKE     CLEAR     54  52  94 NE3       30.09S
HINCKLEY       FAIR      61  61 100 N3        30.09S FOG
CLOQUET        CLEAR     54  50  87 CALM      30.11S
MCGREGOR       CLEAR     55  54  94 CALM      30.11R
$$
MNZ071>073-080-081-089-090-097-098-020800-
   Southwest Minnesota

CITY           SKY/WX    TMP DP  RH WIND       PRES   REMARKS
MONTEVIDEO     CLEAR     64  61  88 CALM      30.10F
GRANITE FALLS  CLEAR     62  60  91 S3        30.11S
CANBY          CLEAR     64  59  83 SW5       30.11F
MARSHALL       CLEAR     63  57  82 SW8       30.10S
REDWOOD FALLS  CLEAR     68  60  75 SW6       30.10S
OLIVIA         CLEAR     63  59  88 SW3       30.09S
PIPESTONE      MOCLDY    64  57  77 CALM      30.14S
WINDOM         CLEAR     61  57  88 CALM      30.13S
WORTHINGTON    CLEAR     63  57  82 SW6       30.15S
JACKSON        CLEAR     61  55  82 S3        30.14S
TRACY          CLEAR     66  59  77 SW8       30.12S
SLAYTON        CLEAR     63  57  81 CALM      30.14S
$$
MNZ065>067-074>077-082>085-091>093-020800-
   South Central Minnesota

CITY           SKY/WX    TMP DP  RH WIND       PRES   REMARKS
MANKATO        CLEAR     66  57  72 S6        30.11S
NEW ULM        CLEAR     64  63  94 SW3       30.10F
ST JAMES       CLEAR     64  59  82 SW5       30.13R
FAIRMONT       CLEAR     61  54  77 SW3       30.13S
GLENCOE        CLEAR     64  59  86 SW3       30.09S
FARIBAULT      CLEAR     64  57  77 CALM      30.11S
OWATONNA       CLEAR     63  57  82 CALM      30.12S
WASECA         PTCLDY    59  54  82 CALM      30.13S
ALBERT LEA     CLEAR     63  63 100 CALM      30.13S FOG
$$
MNZ078>079-086>088-094>096-020800-
   Southeast Minnesota

CITY           SKY/WX    TMP DP  RH WIND       PRES   REMARKS
ROCHESTER      CLEAR     62  57  83 SW7       30.13S
RED WING       CLEAR     63  61  94 CALM      30.08F FOG
STANTON        CLEAR     63  58  86 S3        30.09S
DODGE CENTER   CLEAR     63  57  82 SW5       30.12F
WINONA         CLEAR     63  63 100 CALM      30.11S
AUSTIN         CLEAR     59  57  94 CALM      30.12F
PRESTON        CLEAR     62  61  97 S6        30.13F
$$
ABBREVIATIONS USED IN REMARKS
   TC - TEMPERATURES IN CELSIUS
  WCI - WIND CHILL INDEX
   HX - HEAT INDEX
  VSB - VISIBILITY
$$



USA.gov is the U.S. government's official web portal to all federal, state and local government web resources and services.